Wind from 142 at 1 knots gusting 3

Air temperature 32.2° C
Dewpoint 27.7° C

Last reported at 2014-Apr-20 07:44 UTC.
Time now 2014-Apr-20 08:57 UTC

Location: N 14°51' E 120°16'.
View on Google Maps.

See reports from other nearby stations

Tides Stations Pressure Air Temp Water Temp Dewpoint Dewpoint depression Visibility Wind Speed Wind Dir Waves Ship positions

  
sailing weather and tide predictions

CW7056 Olongapo City PH weather

date/time (UTC)wind fromknots sea level pressurealtimeterstation pressurevisibilityair tempwater tempwave heightnotes
2014-Apr-20 07:44 142 1 gusting 3 32.2
2014-Apr-20 07:34 163 0 gusting 6 32.2
2014-Apr-20 07:23 177 3 gusting 6 32.2
2014-Apr-20 07:13 175 2 gusting 4 32.2
2014-Apr-20 07:01 143 1 gusting 4 32.2
2014-Apr-20 06:50 174 1 gusting 4 32.2
2014-Apr-20 06:40 138 1 gusting 4 32.2
2014-Apr-20 06:19 161 1 gusting 3 32.2
2014-Apr-20 06:08 187 1 gusting 3 32.2
2014-Apr-20 05:57 183 1 gusting 4 32.2
2014-Apr-20 05:47 162 1 gusting 2 31.7
2014-Apr-20 05:37 157 0 gusting 2 31.7
2014-Apr-20 05:27 132 0 gusting 3 31.7
2014-Apr-20 05:16 178 0 gusting 3 31.7
2014-Apr-20 05:06 153 31.7
2014-Apr-20 04:56 160 0 gusting 5 32.2
2014-Apr-20 04:46 190 1 gusting 5 32.2
2014-Apr-20 04:36 135 0 gusting 3 32.2
2014-Apr-20 04:26 192 0 gusting 2 32.8
2014-Apr-20 04:14 162 1 gusting 4 32.8
2014-Apr-20 04:04 165 32.2
2014-Apr-20 03:54 172 1 gusting 2 32.2
2014-Apr-20 03:44 171 0 gusting 2 32.2
2014-Apr-20 03:33 173 0 gusting 5 32.2
2014-Apr-20 03:23 151 1 gusting 5 32.8
2014-Apr-20 03:13 171 1 gusting 6 32.8
2014-Apr-20 03:03 179 2 gusting 6 31.7
2014-Apr-20 02:53 190 0 gusting 2 31.7
2014-Apr-20 02:43 190 0 gusting 1 31.7
2014-Apr-20 02:33 190 31.7
2014-Apr-20 02:22 190 31.1
2014-Apr-20 02:12 188 0 gusting 6 31.1
2014-Apr-20 02:02 188 2 gusting 6 30.6
2014-Apr-20 01:49 188 0 gusting 5 30.6
2014-Apr-20 01:39 188 30.6
2014-Apr-20 01:27 184 30.6
2014-Apr-20 01:17 175 0 gusting 0 30.6
2014-Apr-20 01:07 173 0 gusting 0 30.0
2014-Apr-20 00:57 155 30.0
2014-Apr-20 00:47 155 30.0
2014-Apr-20 00:37 150 29.4
2014-Apr-20 00:27 140 29.4
2014-Apr-20 00:16 060 28.9
2014-Apr-20 00:05 060 28.9
2014-Apr-19 23:55 060 28.9
2014-Apr-19 23:45 060 28.3
2014-Apr-19 23:34 060 27.8
2014-Apr-19 23:24 060 27.8
2014-Apr-19 23:14 060 27.2
2014-Apr-19 23:04 060 26.7
2014-Apr-19 22:53 060 26.1
2014-Apr-19 22:43 060 26.1
2014-Apr-19 22:33 060 26.1
2014-Apr-19 22:23 060 26.1
2014-Apr-19 22:13 060 26.1
2014-Apr-19 22:01 060 26.7
2014-Apr-19 21:50 060 26.7
2014-Apr-19 21:39 060 27.2
2014-Apr-19 21:29 060 27.2
2014-Apr-19 21:19 060 27.2
2014-Apr-19 21:09 060 27.2
2014-Apr-19 20:59 060 27.2
2014-Apr-19 20:49 060 27.2
2014-Apr-19 20:39 060 27.8
2014-Apr-19 20:29 060 27.8
2014-Apr-19 20:19 060 27.8
2014-Apr-19 20:09 060 27.8
2014-Apr-19 19:59 060 27.8
2014-Apr-19 19:49 060 0 gusting 2 27.8
2014-Apr-19 19:37 059 27.8
2014-Apr-19 19:27 051 27.8
2014-Apr-19 19:17 036 28.3
2014-Apr-19 19:06 017 28.3
2014-Apr-19 18:56 015 28.3
2014-Apr-19 18:46 023 28.3
2014-Apr-19 18:36 137 28.3
2014-Apr-19 18:26 137 0 gusting 1 28.3
2014-Apr-19 18:15 138 28.3
2014-Apr-19 18:05 360 28.3
2014-Apr-19 17:55 355 0 gusting 1 28.3
2014-Apr-19 17:44 355 28.3
2014-Apr-19 17:33 057 28.3
2014-Apr-19 17:23 057 28.3
2014-Apr-19 17:12 073 28.3
2014-Apr-19 17:02 067 1 gusting 2 28.3
2014-Apr-19 16:52 049 28.3
2014-Apr-19 16:40 078 28.3
2014-Apr-19 16:29 013 28.3
2014-Apr-19 16:19 348 28.3
2014-Apr-19 16:08 038 28.3
2014-Apr-19 15:57 344 0 gusting 0 28.3
2014-Apr-19 15:47 329 0 gusting 0 28.3
2014-Apr-19 15:37 329 28.3
2014-Apr-19 15:27 329 27.8
2014-Apr-19 15:16 329 28.3
2014-Apr-19 15:06 329 28.3
2014-Apr-19 14:56 329 28.3
2014-Apr-19 14:46 329 28.3
2014-Apr-19 14:36 329 28.3
2014-Apr-19 14:24 329 28.3
2014-Apr-19 14:14 329 28.3
2014-Apr-19 14:03 329 0 gusting 0 28.3
2014-Apr-19 13:53 329 28.9
2014-Apr-19 13:43 329 28.9
2014-Apr-19 13:31 329 28.9
2014-Apr-19 13:21 329 28.9
2014-Apr-19 13:10 329 28.9
2014-Apr-19 12:59 329 28.9
2014-Apr-19 12:49 331 28.9
2014-Apr-19 12:39 329 28.9
2014-Apr-19 12:28 322 0 gusting 1 28.9
2014-Apr-19 12:18 336 28.9
2014-Apr-19 12:08 336 28.9
2014-Apr-19 11:58 336 28.9
2014-Apr-19 11:46 336 28.9
2014-Apr-19 11:36 336 29.4
2014-Apr-19 11:26 336 29.4
2014-Apr-19 11:16 322 29.4
2014-Apr-19 11:04 322 29.4
2014-Apr-19 10:53 323 29.4
2014-Apr-19 10:41 323 30.0
2014-Apr-19 10:31 322 1 gusting 2 30.0
2014-Apr-19 10:06 319 30.6
2014-Apr-19 09:41 327 31.1
2014-Apr-19 09:29 015 0 gusting 1 31.7
2014-Apr-19 09:19 015 0 gusting 1 31.7
2014-Apr-19 09:09 040 32.2
2014-Apr-19 08:59 298 0 gusting 4 32.2
2014-Apr-19 08:49 036 32.2
2014-Apr-19 08:39 321 0 gusting 2 32.2
2014-Apr-19 08:29 317 32.2
2014-Apr-19 08:17 025 0 gusting 2 32.8
2014-Apr-19 08:06 017 0 gusting 2 32.8
2014-Apr-19 07:56 146 0 gusting 3 32.8
2014-Apr-19 07:46 309 0 gusting 3 32.2
2014-Apr-19 07:35 186 1 gusting 4 32.2
2014-Apr-19 07:24 152 0 gusting 4 32.2
2014-Apr-19 07:13 133 0 gusting 3 32.2
2014-Apr-19 07:03 168 1 gusting 3 32.2
2014-Apr-19 06:52 104 1 gusting 4 32.8
2014-Apr-19 06:42 122 1 gusting 4 32.8
2014-Apr-19 06:32 124 1 gusting 5 32.8
2014-Apr-19 06:22 158 0 gusting 5 32.8
2014-Apr-19 06:12 139 32.8
2014-Apr-19 06:01 174 1 gusting 3 33.3
2014-Apr-19 05:50 157 0 gusting 5 33.3
2014-Apr-19 05:40 154 1 gusting 5 33.3
2014-Apr-19 05:30 157 2 gusting 3 33.3
2014-Apr-19 05:19 176 2 gusting 3 33.3
2014-Apr-19 05:09 210 1 gusting 3 33.3
2014-Apr-19 04:58 157 1 gusting 3 33.3
2014-Apr-19 04:48 088 32.8
2014-Apr-19 04:38 051 1 gusting 3 32.8
2014-Apr-19 04:28 201 0 gusting 3 33.3
2014-Apr-19 04:17 175 1 gusting 3 33.3
2014-Apr-19 04:06 178 0 gusting 1 33.3
2014-Apr-19 03:55 146 33.9
2014-Apr-19 03:45 183 0 gusting 3 33.3
2014-Apr-19 03:35 136 33.3
2014-Apr-19 03:25 192 0 gusting 1 33.3
2014-Apr-19 03:14 187 0 gusting 2 32.8
2014-Apr-19 03:03 190 32.2
2014-Apr-19 02:53 207 0 gusting 3 32.2
2014-Apr-19 02:41 207 0 gusting 3 32.2
2014-Apr-19 02:31 192 1 gusting 5 32.2
2014-Apr-19 02:19 202 0 gusting 5 31.7
2014-Apr-19 02:08 198 1 gusting 4 31.7
2014-Apr-19 01:58 208 0 gusting 4 32.2
2014-Apr-19 01:48 177 1 gusting 2 32.2
2014-Apr-19 01:38 177 32.2
2014-Apr-19 01:27 151 0 gusting 2 32.2
2014-Apr-19 01:17 115 31.7
2014-Apr-19 01:07 115 0 gusting 0 31.1
2014-Apr-19 00:57 115 31.1
2014-Apr-19 00:47 065 30.6
2014-Apr-19 00:36 065 0 gusting 0 30.0
2014-Apr-19 00:24 065 30.0
2014-Apr-19 00:12 065 29.4
2014-Apr-18 23:49 065 28.9
2014-Apr-18 23:38 065 28.9
2014-Apr-18 23:28 065 28.3
2014-Apr-18 23:18 065 27.8
2014-Apr-18 23:08 064 27.2
2014-Apr-18 22:58 064 27.2
2014-Apr-18 22:48 064 27.2
2014-Apr-18 22:38 064 27.2
2014-Apr-18 22:27 064 27.2
2014-Apr-18 22:16 064 27.2
2014-Apr-18 13:34 067 28.3
2014-Apr-18 13:24 067 28.3
2014-Apr-18 13:13 067 0 gusting 1 28.3
2014-Apr-18 13:03 067 28.3
2014-Apr-18 12:53 067 0 gusting 1 28.9
2014-Apr-18 12:43 068 28.9
2014-Apr-18 12:32 068 28.9
2014-Apr-18 12:21 068 28.9
2014-Apr-18 12:10 068 28.9
2014-Apr-18 12:00 327 28.9
2014-Apr-18 11:50 327 28.9
2014-Apr-18 11:17 010 29.4
2014-Apr-18 11:06 010 29.4
2014-Apr-18 10:56 030 0 gusting 0 29.4
2014-Apr-18 10:46 031 29.4
2014-Apr-18 10:35 047 29.4
2014-Apr-18 10:25 049 30.0
2014-Apr-18 10:15 062 0 gusting 0 30.0
2014-Apr-18 10:05 318 30.6
2014-Apr-18 09:55 300 0 gusting 2 30.6
2014-Apr-18 09:45 244 31.1
2014-Apr-18 09:35 049 0 gusting 2 31.7
2014-Apr-18 09:24 315 31.7
2014-Apr-18 09:14 315 31.7
2014-Apr-18 09:04 310 31.7
2014-Apr-18 08:54 309 32.2
2014-Apr-18 08:44 182 32.2
2014-Apr-18 08:34 312 32.8
2014-Apr-18 08:23 329 32.8
2014-Apr-18 08:13 326 0 gusting 4 32.8
2014-Apr-18 08:03 294 1 gusting 4 32.8